STARLINK-11440, 62513

Orbit data source: Space-Track

STARLINK-11440, 62513 is a payload satellite owned by SpaceX/Seattle (US) in LEO that was launched on Wed, 08 Jan 2025 UTC via an FALCON 9 launch vehicle from the Air Force Eastern Test Range (AFETR). Payloads include a variety of satellites, spacecraft, and rockets equipped with specific instruments for various scientific and technological missions. These include communications satellites like Starlink; space stations such as the ISS; scientific satellites like the Hubble; Earth observation satellites from companies like Planet Labs, Umbra, and HawkEye 360; GPS; miniature CubeSats for education and research; and military/defense satellites.

Loading next visibility...
STARLINK-11440 details
Identifier
62513, 2025-004C
Orbit
LEO
Last TLE update12 hours ago
Origin
Flag of USSpaceX/Seattle (US)
ManufacturerSpaceX/Seattle
MissionOperational spacecraft
Bus & MotorSTARLINK V2M, Unknown motor
Mass730 kg wet, ~700 kg dry
Launch date (UTC)
2025-01-08 (1 month ago)
Launch vehicle
FALCON 9
Launch site
Air Force Eastern Test Range (AFETR)
Object type
Payload
Rocket body
Debris
Shape & HBRUnknown
Radar Cross SectionLarge (>1 m²)

Expand to show TLE details & history

TLE from 12 hours ago
0 STARLINK-11440
1 62513U 25004C   25035.77274464  .00001804  00000-0  13227-4 0  9996
2 62513  42.9970 310.4103 0001454 280.5462  79.5244 15.77857113  5521
Epoch: 2025-02-04T18:32Z
Definitive object data (Epoch: 2025-02-04T18:32:45.136Z)
Latitude-0.00006°
Longitude-102.95106°
Altitude336.106 km
Speed7.709 km/s
True Right ascension20h 41m 38s
True Declination0° 00' 00"
Sunlit
Object was in daylight at TLE epoch
Visualization TLE readout
Latitude29.34506°
Longitude-69.24731°
Altitude337.467 km
Speed7.711 km/s
Apparent Right ascension22h 01m 37s
Apparent Declination-4° 23' 35"
Sunlit
Object is in daylight
Visualization observer readout
Local Sidereal Time08:55:46
Azimuth333.009° NNW
Elevation-51.493°
Doppler factor1
Orbital elements
Apogee altitude339.478 km
Perigee altitude337.525 km
Semi-major axis6,716.638 km
Eccentricity0.0001454
Inclination42.997°
RAAN310.4103°
Arg. of periapsis280.5462°
True anomaly79.54078°
Mean anomaly79.5244°
Eccentric anomaly79.53259°
Mean motion3.9429 °/min
BSTAR0.000013227
Orbital period91.3 mins
Loading maneuver chart data...
Loading historical data...
Loading historical data...
Loading historical data...
Loading historical data...
Loading historical data...
Loading historical data...
Loading historical data...

STARLINK-11440 Visibility forecast

Observer location: undefined°, undefined

Span
Click to sort rows by Start time (UTC) header in descending order
Start Az.
Max El. time (UTC)
Max El. Az.
Max El.
End time (UTC)
End Az.
4 mins2025-02-06 01:20:31.182Z295.887° NW2025-02-06 01:22:31.182Z46.852° ENE40.428°2025-02-06 01:24:31.182Z94.365° ESE
|